DW3839 Weather Reports


time (UTC)temp
C
wind
direction
speed
KPH
gust
KPH
rain 1hr
cm
rain 24hr
cm
rain mn
cm
humidity
%
barometer
mb
20260505212608 26 217 11.3 24.1 0.00 0.00 0.00 39 1008.4
20260505212108 26 202 8.0 22.5 0.00 0.00 0.00 38 1008.4
20260505211632 27 199 11.3 22.5 0.00 0.00 0.00 38 1008.4
20260505211109 27 231 9.7 27.4 0.00 0.00 0.00 38 1008.3
20260505210518 27 190 12.9 29.0 0.00 0.00 0.00 40 1008.3
20260505210117 26 211 9.7 29.0 0.00 0.00 0.00 40 1008.3
20260505205625 26 214 8.0 29.0 0.00 0.00 0.00 43 1008.4
20260505205006 27 173 9.7 29.0 0.00 0.00 0.00 40 1008.4
20260505204609 27 94 4.8 33.8 0.00 0.00 0.00 38 1008.4
20260505204106 27 191 14.5 35.4 0.00 0.00 0.00 38 1008.4
20260505203608 27 173 6.4 38.6 0.00 0.00 0.00 37 1008.4
20260505203109 27 219 14.5 38.6 0.00 0.00 0.00 35 1008.4
20260505202612 27 204 16.1 27.4 0.00 0.00 0.00 34 1008.4
20260505202116 27 263 6.4 32.2 0.00 0.00 0.00 40 1008.4
20260505201617 27 194 12.9 32.2 0.00 0.00 0.00 35 1008.4
20260505201118 28 189 11.3 40.2 0.00 0.00 0.00 36 1008.4
20260505200510 28 229 16.1 40.2 0.00 0.00 0.00 35 1008.4
20260505200109 28 182 4.8 35.4 0.00 0.00 0.00 41 1008.4
20260505195613 28 179 12.9 35.4 0.00 0.00 0.00 34 1008.5
20260505195117 28 192 8.0 32.2 0.00 0.00 0.00 37 1008.5
20260505194619 28 181 12.9 32.2 0.00 0.00 0.00 37 1008.5
20260505194119 28 223 12.9 32.2 0.00 0.00 0.00 35 1008.8
20260505193619 28 248 14.5 29.0 0.00 0.00 0.00 34 1008.8
20260505193121 27 227 14.5 29.0 0.00 0.00 0.00 37 1008.8
20260505192505 27 244 16.1 37.0 0.00 0.00 0.00 37 1008.9
20260505192103 28 238 16.1 33.8 0.00 0.00 0.00 39 1008.9
20260505191606 28 191 9.7 30.6 0.00 0.00 0.00 38 1008.9
20260505191107 27 205 9.7 37.0 0.00 0.00 0.00 37 1009.3
20260505190521 28 257 19.3 37.0 0.00 0.00 0.00 35 1009.3
20260505190117 28 156 8.0 27.4 0.00 0.00 0.00 39 1009.3
20260505185620 28 246 11.3 40.2 0.00 0.00 0.00 37 1009.3
20260505185003 27 115 14.5 40.2 0.00 0.00 0.00 37 1009.3
20260505184611 28 188 11.3 37.0 0.00 0.00 0.00 38 1009.3
20260505184105 28 250 16.1 37.0 0.00 0.00 0.00 38 1009.4
20260505183608 28 172 16.1 29.0 0.00 0.00 0.00 38 1009.4
20260505183108 27 238 8.0 27.4 0.00 0.00 0.00 39 1009.4
20260505182610 27 63 12.9 27.4 0.00 0.00 0.00 40 1009.9
20260505182113 27 190 9.7 30.6 0.00 0.00 0.00 39 1009.9
20260505181616 27 280 11.3 30.6 0.00 0.00 0.00 38 1009.9
20260505181117 28 242 9.7 29.0 0.00 0.00 0.00 41 1010.0
20260505180512 27 182 3.2 25.7 0.00 0.00 0.00 41 1010.0
20260505180110 27 196 11.3 25.7 0.00 0.00 0.00 38 1010.0
20260505175611 27 226 9.7 33.8 0.00 0.00 0.00 45 1010.2
20260505175114 27 179 12.9 33.8 0.00 0.00 0.00 40 1010.2
20260505174615 27 207 16.1 32.2 0.00 0.00 0.00 40 1010.2
20260505174124 27 196 8.0 30.6 0.00 0.00 0.00 42 1010.1
20260505173622 27 222 11.3 32.2 0.00 0.00 0.00 40 1010.1
20260505173004 27 147 11.3 24.1 0.00 0.00 0.00 39 1010.1
20260505172604 27 219 11.3 22.5 0.00 0.00 0.00 41 1010.3
20260505172114 27 283 9.7 19.3 0.00 0.00 0.00 43 1010.3
20260505171608 27 220 6.4 27.4 0.00 0.00 0.00 42 1010.3
20260505171116 26 190 6.4 27.4 0.00 0.00 0.00 44 1010.5
20260505170522 27 173 9.7 29.0 0.00 0.00 0.00 45 1010.5
20260505170139 27 186 12.9 29.0 0.00 0.00 0.00 44 1010.5
20260505165604 27 205 12.9 20.9 0.00 0.00 0.00 43 1010.7
20260505165107 27 331 3.2 20.9 0.00 0.00 0.00 42 1010.7
20260505164610 26 178 4.8 20.9 0.00 0.00 0.00 46 1010.7
20260505164116 26 202 6.4 17.7 0.00 0.00 0.00 43 1011.0
20260505163615 26 217 6.4 27.4 0.00 0.00 0.00 43 1011.0
20260505163117 26 183 9.7 22.5 0.00 0.00 0.00 44 1011.0
20260505162502 26 230 11.3 16.1 0.00 0.00 0.00 43 1011.3
20260505162103 26 193 3.2 22.5 0.00 0.00 0.00 46 1011.3
20260505161605 26 279 8.0 22.5 0.00 0.00 0.00 45 1011.3
20260505161111 26 208 6.4 16.1 0.00 0.00 0.00 45 1011.5
20260505160526 26 219 8.0 22.5 0.00 0.00 0.00 46 1011.5
20260505153004 25 146 4.8 27.4 0.00 0.00 0.00 49 1011.5
20260505152604 25 153 12.9 27.4 0.00 0.00 0.00 52 1011.6
20260505152109 24 239 8.0 22.5 0.00 0.00 0.00 49 1011.6
20260505151608 24 195 9.7 22.5 0.00 0.00 0.00 50 1011.6
20260505151110 23 192 3.2 19.3 0.00 0.00 0.00 54 1011.5
20260505150510 23 203 3.2 19.3 0.00 0.00 0.00 54 1011.5
20260505150110 23 210 8.0 19.3 0.00 0.00 0.00 54 1011.5
20260505140511 21 210 8.0 17.7 0.00 0.00 0.00 57 1011.6
20260505140111 21 220 8.0 17.7 0.00 0.00 0.00 58 1011.6
20260505130105 18 210 3.2 9.7 0.00 0.00 0.00 64 1011.8
20260505124612 18 284 6.4 19.3 0.00 0.00 0.00 64 1012.1
20260505124114 18 221 4.8 12.9 0.00 0.00 0.00 64 1012.1
20260505123502 18 223 1.6 14.5 0.00 0.00 0.00 65 1012.1
20260505123115 17 191 4.8 14.5 0.00 0.00 0.00 64 1012.1
20260505122606 17 215 6.4 16.1 0.00 0.00 0.00 65 1011.9
20260505122108 17 188 3.2 16.1 0.00 0.00 0.00 64 1011.9
20260505121610 17 211 6.4 29.0 0.00 0.00 0.00 66 1011.9
20260505121113 17 203 4.8 29.0 0.00 0.00 0.00 66 1011.9
20260505120507 17 304 6.4 17.7 0.00 0.00 0.00 67 1011.9
20260505120108 16 212 8.0 17.7 0.00 0.00 0.00 65 1011.9
20260505115606 16 251 4.8 19.3 0.00 0.00 0.00 68 1011.6
20260505115112 16 225 3.2 17.7 0.00 0.00 0.00 66 1011.6
20260505114616 16 246 6.4 20.9 0.00 0.00 0.00 65 1011.6
20260505114115 16 207 8.0 32.2 0.00 0.00 0.00 67 1011.6
20260505113614 16 262 9.7 32.2 0.00 0.00 0.00 67 1011.6
20260505113117 16 216 6.4 16.1 0.00 0.00 0.00 67 1011.6
20260505112507 16 217 6.4 17.7 0.00 0.00 0.00 68 1011.5
20260505112103 16 192 6.4 19.3 0.00 0.00 0.00 68 1011.5
20260505111611 16 178 8.0 19.3 0.00 0.00 0.00 67 1011.5
20260505111110 16 360 6.4 16.1 0.00 0.00 0.00 69 1011.2
20260505110517 15 360 4.8 17.7 0.00 0.00 0.00 69 1011.2
20260505110115 15 196 8.0 17.7 0.00 0.00 0.00 69 1011.2
20260505102117 15 214 6.4 16.1 0.00 0.00 0.00 69 1010.8
20260505101617 15 203 6.4 19.3 0.00 0.00 0.00 69 1010.8
20260505101120 15 217 4.8 25.7 0.00 0.00 0.00 68 1010.8
20260505100510 15 217 6.4 25.7 0.00 0.00 0.00 70 1010.8
20260505100111 15 203 6.4 19.3 0.00 0.00 0.00 70 1010.8
20260505095611 15 205 1.6 14.5 0.00 0.00 0.00 70 1010.6
20260505095116 15 178 3.2 19.3 0.00 0.00 0.00 70 1010.6
20260505094618 15 202 9.7 19.3 0.00 0.00 0.00 70 1010.6
20260505094119 15 204 8.0 17.7 0.00 0.00 0.00 70 1010.6
20260505093624 15 234 6.4 20.9 0.00 0.00 0.00 71 1010.6
20260505093124 15 180 6.4 20.9 0.00 0.00 0.00 70 1010.6
20260505092508 15 190 4.8 17.7 0.00 0.00 0.00 70 1010.5
20260505092108 15 194 3.2 17.7 0.00 0.00 0.00 70 1010.5
20260505091611 15 194 6.4 14.5 0.00 0.00 0.00 70 1010.5
20260505091112 15 233 3.2 14.5 0.00 0.00 0.00 70 1010.5
20260505090523 15 210 1.6 14.5 0.00 0.00 0.00 70 1010.5
20260505090119 15 195 6.4 14.5 0.00 0.00 0.00 70 1010.5
20260505085508 15 215 6.4 16.1 0.00 0.00 0.00 70 1010.6
20260505085108 15 200 6.4 16.1 0.00 0.00 0.00 71 1010.6
20260505084610 15 210 3.2 17.7 0.00 0.00 0.00 70 1010.6
20260505084112 15 186 6.4 17.7 0.00 0.00 0.00 71 1010.6
20260505083613 15 199 4.8 12.9 0.00 0.00 0.00 71 1010.6
20260505083119 15 207 4.8 11.3 0.00 0.00 0.00 71 1010.6
20260505082616 15 215 6.4 11.3 0.00 0.00 0.00 71 1010.6
20260505082114 15 233 4.8 12.9 0.00 0.00 0.00 72 1010.6
20260505081620 15 184 4.8 12.9 0.00 0.00 0.00 71 1010.6
20260505081119 15 190 4.8 12.9 0.00 0.00 0.00 71 1010.5
20260505080513 15 250 4.8 14.5 0.00 0.00 0.00 72 1010.5
20260505080110 15 220 4.8 12.9 0.00 0.00 0.00 71 1010.5
20260505075608 15 207 8.0 12.9 0.00 0.00 0.00 71 1010.5
20260505075109 16 175 8.0 14.5 0.00 0.00 0.00 71 1010.5
20260505074615 16 220 4.8 14.5 0.00 0.00 0.00 72 1010.5
20260505074115 16 213 4.8 12.9 0.00 0.00 0.00 71 1010.2
20260505073618 15 202 4.8 12.9 0.00 0.00 0.00 71 1010.2
20260505073121 15 207 4.8 14.5 0.00 0.00 0.00 72 1010.2
20260505072622 15 207 4.8 14.5 0.00 0.00 0.00 72 1010.2
20260505072010 15 194 3.2 14.5 0.00 0.00 0.00 72 1010.2
20260505071608 15 219 4.8 16.1 0.00 0.00 0.00 72 1010.2
20260505071108 15 196 3.2 16.1 0.00 0.00 0.00 73 1010.1
20260505070516 15 214 4.8 14.5 0.00 0.00 0.00 73 1010.1
20260505070116 15 189 3.2 19.3 0.00 0.00 0.00 74 1010.1
20260505065616 15 198 8.0 19.3 0.00 0.00 0.00 74 1010.1
20260505065004 15 239 4.8 14.5 0.00 0.00 0.00 75 1010.1
20260505064605 15 252 1.6 14.5 0.00 0.00 0.00 76 1010.1
20260505064109 15 206 3.2 9.7 0.00 0.00 0.00 76 1010.1
20260505063610 15 172 4.8 9.7 0.00 0.00 0.00 76 1010.1
20260505063113 15 186 3.2 8.0 0.00 0.00 0.00 75 1010.1
20260505062614 15 203 1.6 8.0 0.00 0.00 0.00 74 1010.3
20260505062118 15 171 3.2 8.0 0.00 0.00 0.00 74 1010.3
20260505061621 15 200 1.6 8.0 0.00 0.00 0.00 74 1010.3
20260505061121 15 219 3.2 8.0 0.00 0.00 0.00 73 1010.3
20260505060513 16 188 1.6 9.7 0.00 0.00 0.00 73 1010.3
20260505060111 16 196 3.2 9.7 0.00 0.00 0.00 72 1010.3
20260505055613 16 207 3.2 11.3 0.00 0.00 0.00 72 1010.2
20260505055112 16 199 3.2 11.3 0.00 0.00 0.00 72 1010.2
20260505054614 16 231 4.8 8.0 0.00 0.00 0.00 73 1010.2
20260505054118 16 168 1.6 8.0 0.00 0.00 0.00 73 1010.2
20260505053620 16 212 3.2 6.4 0.00 0.00 0.00 72 1010.2
20260505053122 16 213 0.0 8.0 0.00 0.00 0.00 72 1010.2
20260505052622 16 215 3.2 8.0 0.00 0.00 0.00 72 1010.3
20260505052005 16 191 3.2 8.0 0.00 0.00 0.00 73 1010.3
20260505051603 15 217 1.6 8.0 0.00 0.00 0.00 73 1010.3
20260505051106 15 190 3.2 8.0 0.00 0.00 0.00 73 1010.4
20260505050523 15 191 1.6 6.4 0.00 0.00 0.00 74 1010.4
20260505041616 16 204 4.8 11.3 0.00 0.00 0.00 69 1010.6
20260505041116 16 229 3.2 11.3 0.00 0.00 0.00 69 1010.6
20260505040511 17 209 1.6 9.7 0.00 0.00 0.00 68 1010.6
20260505040109 17 221 4.8 9.7 0.00 0.00 0.00 68 1010.6
20260505035609 17 192 1.6 8.0 0.00 0.00 0.00 68 1010.5
20260505035109 17 219 1.6 11.3 0.00 0.00 0.00 67 1010.5
20260505034610 17 186 1.6 14.5 0.00 0.00 0.00 67 1010.5
20260505034112 17 246 4.8 14.5 0.00 0.00 0.00 67 1010.4
20260505033611 17 188 1.6 17.7 0.00 0.00 0.00 67 1010.4
20260505033115 17 194 6.4 17.7 0.00 0.00 0.00 66 1010.4
20260505032614 17 232 3.2 9.7 0.00 0.00 0.00 67 1010.5
20260505032116 17 234 3.2 9.7 0.00 0.00 0.00 66 1010.5
20260505031619 17 196 1.6 11.3 0.00 0.00 0.00 66 1010.5
20260505031119 17 226 4.8 16.1 0.00 0.00 0.00 66 1010.5
20260505030517 17 205 6.4 16.1 0.00 0.00 0.00 65 1010.5
20260505030117 17 217 4.8 12.9 0.00 0.00 0.00 63 1010.5
20260505025622 17 218 3.2 11.3 0.00 0.00 0.00 62 1010.3
20260505025006 18 194 3.2 8.0 0.00 0.00 0.00 62 1010.3
20260505024604 18 208 1.6 8.0 0.00 0.00 0.00 61 1010.3
20260505024104 18 210 3.2 9.7 0.00 0.00 0.00 60 1010.4
20260505023604 18 246 3.2 12.9 0.00 0.00 0.00 60 1010.4
20260505023105 18 180 3.2 12.9 0.00 0.00 0.00 59 1010.4
20260505022612 18 224 6.4 12.9 0.00 0.00 0.00 60 1010.3
20260505022115 18 213 4.8 12.9 0.00 0.00 0.00 59 1010.3
20260505021612 18 194 6.4 14.5 0.00 0.00 0.00 59 1010.3
20260505021112 18 182 8.0 12.9 0.00 0.00 0.00 58 1010.3
20260505020519 18 220 6.4 20.9 0.00 0.00 0.00 59 1010.3
20260505020119 18 180 3.2 12.9 0.00 0.00 0.00 58 1010.3
20260505015511 18 227 4.8 11.3 0.00 0.00 0.00 58 1010.0
20260505015110 18 219 3.2 9.7 0.00 0.00 0.00 57 1010.0
20260505014609 18 201 3.2 8.0 0.00 0.00 0.00 57 1010.0
20260505014107 18 194 3.2 9.7 0.00 0.00 0.00 57 1010.1
20260505013608 19 236 4.8 9.7 0.00 0.00 0.00 57 1010.1
20260505013112 19 205 3.2 8.0 0.00 0.00 0.00 56 1010.1
20260505012613 19 291 1.6 8.0 0.00 0.00 0.00 55 1009.7
20260505012119 20 223 4.8 11.3 0.00 0.00 0.00 55 1009.7
20260505011622 20 186 3.2 11.3 0.00 0.00 0.00 54 1009.7
20260505011123 20 175 4.8 9.7 0.00 0.00 0.00 55 1009.6
20260505010514 20 234 1.6 14.5 0.00 0.00 0.00 54 1009.6
20260505010114 20 213 3.2 17.7 0.00 0.00 0.00 54 1009.6
20260505005615 20 179 4.8 17.7 0.00 0.00 0.00 54 1009.6
20260505005118 20 235 4.8 11.3 0.00 0.00 0.00 54 1009.6
20260505004625 20 160 6.4 11.3 0.00 0.00 0.00 54 1009.6
20260505004124 20 189 4.8 11.3 0.00 0.00 0.00 54 1009.6
20260505003623 20 177 6.4 14.5 0.00 0.00 0.00 55 1009.6
20260505003004 20 32 4.8 17.7 0.00 0.00 0.00 53 1009.6
20260505002604 20 189 3.2 16.1 0.00 0.00 0.00 54 1009.4
20260505002105 20 242 6.4 16.1 0.00 0.00 0.00 51 1009.4
20260505001612 21 228 6.4 17.7 0.00 0.00 0.00 52 1009.4
20260505001115 21 224 3.2 11.3 0.00 0.00 0.00 51 1009.5
20260505000506 21 216 4.8 16.1 0.00 0.00 0.00 49 1009.5
20260505000110 21 218 6.4 16.1 0.00 0.00 0.00 51 1009.5
20260504235608 21 213 6.4 16.1 0.00 0.00 0.00 50 1009.3
20260504235110 21 96 4.8 19.3 0.00 0.00 0.00 49 1009.3
20260504234643 21 202 9.7 19.3 0.00 0.00 0.00 49 1009.3
20260504234114 21 223 8.0 17.7 0.00 0.00 0.00 49 1009.2
20260504233119 21 209 8.0 19.3 0.00 0.00 0.00 49 1009.2
20260504232618 21 236 6.4 17.7 0.00 0.00 0.00 48 1009.1
20260504232006 21 249 4.8 17.7 0.00 0.00 0.00 48 1009.1
20260504231606 21 202 8.0 22.5 0.00 0.00 0.00 48 1009.1
20260504231104 22 213 9.7 22.5 0.00 0.00 0.00 46 1009.1
20260504230515 22 198 3.2 20.9 0.00 0.00 0.00 46 1009.1
20260504230115 22 219 3.2 20.9 0.00 0.00 0.00 47 1009.1
20260504225616 22 240 6.4 20.9 0.00 0.00 0.00 45 1009.1
20260504225116 22 211 9.7 20.9 0.00 0.00 0.00 45 1009.1
20260504224617 22 212 9.7 24.1 0.00 0.00 0.00 44 1009.1
20260504224124 22 205 8.0 24.1 0.00 0.00 0.00 47 1009.1
20260504223622 22 226 11.3 22.5 0.00 0.00 0.00 44 1009.1
20260504223004 22 175 8.0 24.1 0.00 0.00 0.00 44 1009.1
20260504222605 22 219 11.3 27.4 0.00 0.00 0.00 44 1009.1
20260504222105 22 268 11.3 27.4 0.00 0.00 0.00 44 1009.1
20260504221610 22 162 8.0 17.7 0.00 0.00 0.00 46 1009.1
20260504221112 23 219 4.8 32.2 0.00 0.00 0.00 45 1008.9
20260504220522 23 151 12.9 32.2 0.00 0.00 0.00 43 1008.9
20260504220011 23 221 11.3 22.5 0.00 0.00 0.00 42 1008.9
20260504215605 23 212 6.4 29.0 0.00 0.00 0.00 44 1009.0
20260504215107 23 207 6.4 29.0 0.00 0.00 0.00 42 1009.0
20260504214609 23 207 9.7 25.7 0.00 0.00 0.00 42 1009.0
20260504214107 23 143 9.7 22.5 0.00 0.00 0.00 43 1009.0
20260504213617 23 241 9.7 22.5 0.00 0.00 0.00 45 1009.0
20260504213115 23 179 4.8 17.7 0.00 0.00 0.00 44 1009.0